Zurück zum Katalog

NOAA 16 DEB

AktivSSO
NORAD 41056·DEBRIS·🇺🇸 United States

Gestartet Sep 21, 2000 von Vandenberg Space Force Base

Loading…

Nächste Überflüge (nächste 24 Stunden)

TLE

AktuellSource: Space-Track

Epoche: Sep 14, 2026, 22:41 UTC

1 41056U 00055P   26257.94546320  .00000594  00000-0  33502-3 0  9995
2 41056  98.5643 253.5912 0015920 215.7446 144.2663 14.13905677556179

Verfolge NOAA 16 DEB in Echtzeit mit AllMySat

Download on the App Store